Location: Unspecified
(41.9031°N, 12.4386°E)
Time: 04:32:57
(UTC+02:00)

ISS - Visible Passes

Search period start: 28 July 2017 00:00
Search period end: 07 August 2017 00:00
Orbit: 400 x 408 km, 51.6° (Epoch: 28 July)

Date Brightness Start Highest point End Pass type
(mag) Time Alt. Az. Time Alt. Az. Time Alt. Az.
28 Jul -0.8 00:45:28 10° NNW 00:46:58 16° N 00:46:58 16° N visible
28 Jul -1.0 22:15:26 10° WNW 22:17:50 19° NNW 22:20:14 10° NNE visible
28 Jul -0.9 23:53:10 10° NNW 23:55:14 15° N 23:56:09 14° NNE visible
29 Jul -1.4 21:22:35 10° WNW 21:25:18 24° NNW 21:28:02 10° NE visible
29 Jul -0.8 23:00:41 10° NW 23:02:38 15° N 23:04:35 10° NE visible
30 Jul -0.7 00:37:12 10° NW 00:38:01 15° NNW 00:38:01 15° NNW visible
30 Jul -0.9 22:07:59 10° NW 22:10:02 15° N 22:12:04 10° NNE visible
30 Jul -1.2 23:45:00 10° NNW 23:47:17 19° N 23:47:17 19° N visible
31 Jul -1.0 21:15:08 10° WNW 21:17:25 17° NNW 21:19:42 10° NNE visible
31 Jul -1.1 22:52:42 10° NNW 22:54:50 16° N 22:56:35 12° NE visible
01 Aug -0.6 00:28:49 10° NW 00:29:12 13° NW 00:29:12 13° NW visible
01 Aug -1.0 22:00:14 10° NW 22:02:12 15° N 22:04:10 10° NE visible
01 Aug -1.4 23:36:36 10° NW 23:38:31 23° N 23:38:31 23° N visible
02 Aug -1.0 21:07:33 10° NW 21:09:33 15° N 21:11:32 10° NE visible
02 Aug -1.6 22:44:22 10° NW 22:46:55 20° NNE 22:47:51 18° NE visible
03 Aug -1.3 21:52:05 10° NNW 21:54:18 17° N 21:56:32 10° NE visible
03 Aug -1.6 23:28:10 10° NW 23:29:49 25° NNW 23:29:49 25° NNW visible
04 Aug -1.1 20:59:39 10° NNW 21:01:39 15° N 21:03:38 10° NE visible
04 Aug -2.4 22:35:54 10° NW 22:38:52 31° NNE 22:39:10 30° NE visible
05 Aug -1.8 21:43:39 10° NW 21:46:18 22° NNE 21:48:33 12° ENE visible
05 Aug -1.5 23:19:48 10° WNW 23:21:11 23° WNW 23:21:11 23° WNW visible
06 Aug -1.5 20:51:20 10° NNW 20:53:39 18° NNE 20:55:59 10° ENE visible
06 Aug -3.5 22:27:25 10° NW 22:30:35 59° NNE 22:30:35 59° NNE visible
